Time,TemperatureF,DewpointF,PressureIn,WindDirection,WindDirectionDegrees,WindSpeedMPH,WindSpeedGustMPH,Humidity,HourlyPrecipIn,Conditions,Clouds,dailyrainin,SoftwareType,DateUTC
2013-06-10 00:00:00,65.3,56.8,30.10,NW,325,0.0,0.0,74,0.00,,,0.00,Wunderground v.1.15,2013-06-10 04:00:00,
2013-06-10 00:05:00,65.0,56.9,30.11,NW,325,0.0,0.0,75,0.00,,,0.00,Wunderground v.1.15,2013-06-10 04:05:00,
2013-06-10 00:10:00,64.9,56.8,30.11,NW,325,0.0,0.0,75,0.00,,,0.00,Wunderground v.1.15,2013-06-10 04:10:00,
2013-06-10 00:15:00,64.8,56.7,30.11,NW,325,0.0,0.0,75,0.00,,,0.00,Wunderground v.1.15,2013-06-10 04:15:00,
2013-06-10 00:25:00,64.9,56.8,30.11,NW,326,0.0,2.0,75,0.00,,,0.00,Wunderground v.1.15,2013-06-10 04:25:00,
2013-06-10 00:30:00,64.9,56.8,30.11,NW,326,0.0,0.0,75,0.00,,,0.00,Wunderground v.1.15,2013-06-10 04:30:00,
2013-06-10 00:35:00,64.9,56.8,30.11,NW,326,0.0,0.0,75,0.00,,,0.00,Wunderground v.1.15,2013-06-10 04:35:00,
2013-06-10 00:45:00,64.6,56.5,30.11,NW,326,0.0,0.0,75,0.00,,,0.00,Wunderground v.1.15,2013-06-10 04:45:00,
2013-06-10 00:50:00,64.4,56.7,30.11,NW,326,0.0,0.0,76,0.00,,,0.00,Wunderground v.1.15,2013-06-10 04:50:00,
2013-06-10 01:00:00,64.1,56.7,30.11,NW,326,0.0,0.0,77,0.00,,,0.00,Wunderground v.1.15,2013-06-10 05:00:00,
2013-06-10 01:10:00,64.0,56.6,30.12,NW,326,0.0,0.0,77,0.00,,,0.00,Wunderground v.1.15,2013-06-10 05:10:00,
2013-06-10 01:20:00,63.7,56.7,30.12,NW,326,0.0,0.0,78,0.00,,,0.00,Wunderground v.1.15,2013-06-10 05:20:00,
2013-06-10 01:30:00,63.7,56.7,30.11,NW,326,0.0,0.0,78,0.00,,,0.00,Wunderground v.1.15,2013-06-10 05:30:00,
2013-06-10 01:40:00,63.4,56.8,30.11,NW,326,0.0,0.0,79,0.00,,,0.00,Wunderground v.1.15,2013-06-10 05:40:00,
2013-06-10 01:45:00,63.4,56.8,30.11,NW,326,0.0,0.0,79,0.00,,,0.00,Wunderground v.1.15,2013-06-10 05:45:00,
2013-06-10 01:50:00,63.2,56.6,30.11,NW,326,0.0,0.0,79,0.00,,,0.00,Wunderground v.1.15,2013-06-10 05:50:00,
2013-06-10 02:00:00,63.1,56.5,30.11,NW,326,1.0,1.0,79,0.00,,,0.00,Wunderground v.1.15,2013-06-10 06:00:00,
2013-06-10 02:05:00,62.9,56.6,30.11,NW,326,1.0,1.0,80,0.00,,,0.00,Wunderground v.1.15,2013-06-10 06:05:00,
2013-06-10 02:15:00,62.7,56.4,30.11,NW,326,0.0,1.0,80,0.00,,,0.00,Wunderground v.1.15,2013-06-10 06:15:00,
2013-06-10 02:20:00,62.6,56.3,30.11,NW,326,0.0,1.0,80,0.00,,,0.00,Wunderground v.1.15,2013-06-10 06:20:00,
2013-06-10 02:30:00,62.4,56.5,30.11,NW,326,0.0,1.0,81,0.00,,,0.00,Wunderground v.1.15,2013-06-10 06:30:00,
2013-06-10 02:35:00,62.5,56.6,30.11,NW,323,1.0,2.0,81,0.00,,,0.00,Wunderground v.1.15,2013-06-10 06:35:00,
2013-06-10 02:40:00,62.5,56.6,30.11,NW,323,1.0,1.0,81,0.00,,,0.00,Wunderground v.1.15,2013-06-10 06:40:00,
2013-06-10 02:50:00,62.2,56.3,30.12,NW,323,0.0,0.0,81,0.00,,,0.00,Wunderground v.1.15,2013-06-10 06:50:00,
2013-06-10 03:00:00,61.9,56.3,30.12,NW,323,0.0,0.0,82,0.00,,,0.00,Wunderground v.1.15,2013-06-10 07:00:00,
2013-06-10 03:05:00,61.6,56.0,30.12,NW,323,0.0,0.0,82,0.00,,,0.00,Wunderground v.1.15,2013-06-10 07:05:00,
2013-06-10 03:15:00,61.6,56.0,30.12,NW,323,0.0,0.0,82,0.00,,,0.00,Wunderground v.1.15,2013-06-10 07:15:00,
2013-06-10 03:20:00,61.7,56.1,30.12,NW,323,0.0,0.0,82,0.00,,,0.00,Wunderground v.1.15,2013-06-10 07:20:00,
2013-06-10 03:30:00,61.2,56.0,30.12,NW,323,0.0,0.0,83,0.00,,,0.00,Wunderground v.1.15,2013-06-10 07:30:00,
2013-06-10 03:40:00,60.9,56.0,30.12,NW,323,0.0,0.0,84,0.00,,,0.00,Wunderground v.1.15,2013-06-10 07:40:00,
2013-06-10 03:50:00,60.7,55.8,30.12,NW,323,0.0,0.0,84,0.00,,,0.00,Wunderground v.1.15,2013-06-10 07:50:00,
2013-06-10 04:00:00,60.4,55.9,30.11,NW,323,0.0,0.0,85,0.00,,,0.00,Wunderground v.1.15,2013-06-10 08:00:00,
2013-06-10 04:10:00,60.2,55.7,30.11,NW,323,0.0,0.0,85,0.00,,,0.00,Wunderground v.1.15,2013-06-10 08:10:00,
2013-06-10 04:20:00,60.0,55.8,30.12,NW,323,0.0,0.0,86,0.00,,,0.00,Wunderground v.1.15,2013-06-10 08:20:00,
2013-06-10 04:25:00,59.7,55.5,30.12,NW,323,0.0,0.0,86,0.00,,,0.00,Wunderground v.1.15,2013-06-10 08:25:00,
2013-06-10 04:35:00,59.5,55.6,30.13,NW,323,0.0,0.0,87,0.00,,,0.00,Wunderground v.1.15,2013-06-10 08:35:00,
2013-06-10 04:45:00,59.2,55.6,30.13,NW,323,0.0,0.0,88,0.00,,,0.00,Wunderground v.1.15,2013-06-10 08:45:00,
2013-06-10 04:50:00,59.2,55.6,30.13,NW,323,0.0,0.0,88,0.00,,,0.00,Wunderground v.1.15,2013-06-10 08:50:00,
2013-06-10 05:00:00,58.9,55.4,30.13,NW,323,0.0,0.0,88,0.00,,,0.00,Wunderground v.1.15,2013-06-10 09:00:00,
2013-06-10 05:05:00,58.9,55.7,30.13,NW,323,0.0,0.0,89,0.00,,,0.00,Wunderground v.1.15,2013-06-10 09:05:00,
2013-06-10 05:15:00,58.9,55.7,30.13,NW,323,0.0,0.0,89,0.00,,,0.00,Wunderground v.1.15,2013-06-10 09:15:00,
2013-06-10 05:20:00,58.7,55.5,30.13,NW,323,0.0,0.0,89,0.00,,,0.00,Wunderground v.1.15,2013-06-10 09:20:00,
2013-06-10 05:30:00,58.7,55.8,30.13,NW,323,0.0,0.0,90,0.00,,,0.00,Wunderground v.1.15,2013-06-10 09:30:00,
2013-06-10 05:35:00,58.7,55.8,30.13,NW,323,0.0,0.0,90,0.00,,,0.00,Wunderground v.1.15,2013-06-10 09:35:00,
2013-06-10 05:45:00,58.7,55.8,30.13,NW,323,0.0,0.0,90,0.00,,,0.00,Wunderground v.1.15,2013-06-10 09:45:00,
2013-06-10 05:50:00,58.8,55.9,30.13,NW,323,0.0,0.0,90,0.00,,,0.00,Wunderground v.1.15,2013-06-10 09:50:00,
2013-06-10 05:55:00,59.1,56.2,30.13,NW,323,0.0,0.0,90,0.00,,,0.00,Wunderground v.1.15,2013-06-10 09:55:00,
2013-06-10 06:05:00,59.5,56.3,30.13,NW,323,0.0,0.0,89,0.00,,,0.00,Wunderground v.1.15,2013-06-10 10:05:00,
2013-06-10 06:15:00,60.5,56.9,30.14,NW,323,0.0,0.0,88,0.00,,,0.00,Wunderground v.1.15,2013-06-10 10:15:00,
2013-06-10 06:20:00,60.7,56.8,30.14,NW,323,0.0,0.0,87,0.00,,,0.00,Wunderground v.1.15,2013-06-10 10:20:00,
2013-06-10 06:30:00,61.6,57.0,30.14,NW,323,0.0,0.0,85,0.00,,,0.00,Wunderground v.1.15,2013-06-10 10:30:00,
2013-06-10 06:35:00,61.8,57.2,30.14,NW,323,0.0,0.0,85,0.00,,,0.00,Wunderground v.1.15,2013-06-10 10:35:00,
2013-06-10 06:40:00,62.0,57.4,30.14,ESE,109,1.0,3.0,85,0.00,,,0.00,Wunderground v.1.15,2013-06-10 10:40:00,
2013-06-10 06:50:00,61.7,57.1,30.14,ESE,116,1.0,1.0,85,0.00,,,0.00,Wunderground v.1.15,2013-06-10 10:50:00,
2013-06-10 07:00:00,62.3,57.4,30.15,ESE,109,1.0,1.0,84,0.00,,,0.00,Wunderground v.1.15,2013-06-10 11:00:00,
2013-06-10 07:05:00,62.7,57.5,30.15,ESE,109,1.0,1.0,83,0.00,,,0.00,Wunderground v.1.15,2013-06-10 11:05:00,
2013-06-10 07:15:00,63.0,57.1,30.15,ESE,108,0.0,1.0,81,0.00,,,0.00,Wunderground v.1.15,2013-06-10 11:15:00,
2013-06-10 07:25:00,63.5,57.6,30.16,ESE,108,0.0,0.0,81,0.00,,,0.00,Wunderground v.1.15,2013-06-10 11:25:00,
2013-06-10 07:35:00,64.0,57.7,30.15,ESE,108,0.0,1.0,80,0.00,,,0.00,Wunderground v.1.15,2013-06-10 11:35:00,
2013-06-10 07:40:00,64.2,57.9,30.16,ESE,108,0.0,0.0,80,0.00,,,0.00,Wunderground v.1.15,2013-06-10 11:40:00,
2013-06-10 07:50:00,64.7,58.0,30.16,ESE,108,0.0,0.0,79,0.00,,,0.00,Wunderground v.1.15,2013-06-10 11:50:00,
2013-06-10 08:00:00,65.2,58.2,30.15,ESE,109,1.0,1.0,78,0.00,,,0.00,Wunderground v.1.15,2013-06-10 12:00:00,
2013-06-10 08:05:00,65.5,58.1,30.15,ESE,109,1.0,1.0,77,0.00,,,0.00,Wunderground v.1.15,2013-06-10 12:05:00,
2013-06-10 08:15:00,66.9,58.3,30.15,NE,49,2.0,2.0,74,0.00,,,0.00,Wunderground v.1.15,2013-06-10 12:15:00,
2013-06-10 08:20:00,67.6,57.1,30.15,ENE,78,2.0,2.0,69,0.00,,,0.00,Wunderground v.1.15,2013-06-10 12:20:00,
2013-06-10 08:30:00,68.0,55.8,30.15,ESE,113,4.0,4.0,65,0.00,,,0.00,Wunderground v.1.15,2013-06-10 12:30:00,
2013-06-10 08:40:00,68.3,55.6,30.15,ESE,105,4.0,4.0,64,0.00,,,0.00,Wunderground v.1.15,2013-06-10 12:40:00,
2013-06-10 08:50:00,68.7,55.6,30.15,SSE,159,3.0,4.0,63,0.00,,,0.00,Wunderground v.1.15,2013-06-10 12:50:00,
2013-06-10 09:00:00,69.2,55.6,30.14,SE,145,4.0,4.0,62,0.00,,,0.00,Wunderground v.1.15,2013-06-10 13:00:00,
2013-06-10 09:05:00,69.1,56.0,30.15,SE,140,4.0,8.0,63,0.00,,,0.00,Wunderground v.1.15,2013-06-10 13:05:00,
2013-06-10 09:15:00,69.2,55.2,30.15,NE,35,4.0,5.0,61,0.00,,,0.00,Wunderground v.1.15,2013-06-10 13:15:00,
2013-06-10 09:20:00,69.6,55.6,30.15,ESE,103,3.0,5.0,61,0.00,,,0.00,Wunderground v.1.15,2013-06-10 13:20:00,
2013-06-10 09:25:00,69.6,55.1,30.15,SSE,167,3.0,5.0,60,0.00,,,0.00,Wunderground v.1.15,2013-06-10 13:25:00,
2013-06-10 09:35:00,70.1,55.6,30.15,SE,142,4.0,7.0,60,0.00,,,0.00,Wunderground v.1.15,2013-06-10 13:35:00,
2013-06-10 09:45:00,69.5,54.1,30.15,East,98,4.0,5.0,58,0.00,,,0.00,Wunderground v.1.15,2013-06-10 13:45:00,
2013-06-10 09:55:00,70.0,54.5,30.15,ESE,117,3.0,3.0,58,0.00,,,0.00,Wunderground v.1.15,2013-06-10 13:55:00,
2013-06-10 10:05:00,69.5,54.5,30.15,East,83,4.0,7.0,59,0.00,,,0.00,Wunderground v.1.15,2013-06-10 14:05:00,
2013-06-10 10:10:00,69.5,54.5,30.15,SSW,192,3.0,3.0,59,0.00,,,0.00,Wunderground v.1.15,2013-06-10 14:10:00,
2013-06-10 10:20:00,69.2,55.2,30.15,SE,131,3.0,4.0,61,0.00,,,0.00,Wunderground v.1.15,2013-06-10 14:20:00,
2013-06-10 10:25:00,68.9,54.9,30.15,ENE,76,3.0,4.0,61,0.00,,,0.00,Wunderground v.1.15,2013-06-10 14:25:00,
2013-06-10 10:35:00,68.6,54.6,30.15,SSE,152,3.0,6.0,61,0.00,,,0.00,Wunderground v.1.15,2013-06-10 14:35:00,
2013-06-10 10:45:00,68.1,55.0,30.15,East,99,3.0,4.0,63,0.00,,,0.00,Wunderground v.1.15,2013-06-10 14:45:00,
2013-06-10 10:50:00,67.9,55.3,30.15,ESE,107,4.0,4.0,64,0.00,,,0.00,Wunderground v.1.15,2013-06-10 14:50:00,
2013-06-10 10:55:00,68.0,55.8,30.15,ESE,113,3.0,4.0,65,0.00,,,0.00,Wunderground v.1.15,2013-06-10 14:55:00,
2013-06-10 11:05:00,67.6,56.2,30.15,ENE,65,3.0,3.0,67,0.00,,,0.00,Wunderground v.1.15,2013-06-10 15:05:00,
2013-06-10 11:15:00,67.8,56.9,30.15,SE,138,3.0,8.0,68,0.00,,,0.00,Wunderground v.1.15,2013-06-10 15:15:00,
2013-06-10 11:25:00,67.3,57.2,30.15,SE,125,3.0,3.0,70,0.00,,,0.00,Wunderground v.1.15,2013-06-10 15:25:00,
2013-06-10 11:35:00,66.7,56.6,30.15,East,101,3.0,5.0,70,0.00,,,0.00,Wunderground v.1.15,2013-06-10 15:35:00,
2013-06-10 11:45:00,66.4,56.3,30.15,ESE,119,3.0,4.0,70,0.00,,,0.00,Wunderground v.1.15,2013-06-10 15:45:00,
2013-06-10 11:50:00,66.4,56.3,30.14,East,98,3.0,3.0,70,0.00,,,0.00,Wunderground v.1.15,2013-06-10 15:50:00,
2013-06-10 12:00:00,66.3,56.2,30.14,SE,128,4.0,4.0,70,0.00,,,0.00,Wunderground v.1.15,2013-06-10 16:00:00,
2013-06-10 12:05:00,66.4,56.3,30.15,ESE,105,3.0,4.0,70,0.00,,,0.00,Wunderground v.1.15,2013-06-10 16:05:00,
2013-06-10 12:15:00,66.0,56.3,30.15,East,96,4.0,4.0,71,0.00,,,0.00,Wunderground v.1.15,2013-06-10 16:15:00,
2013-06-10 12:20:00,66.2,56.5,30.15,ENE,69,4.0,4.0,71,0.00,,,0.00,Wunderground v.1.15,2013-06-10 16:20:00,
2013-06-10 12:30:00,66.2,56.9,30.15,SE,126,3.0,4.0,72,0.00,,,0.00,Wunderground v.1.15,2013-06-10 16:30:00,
2013-06-10 12:35:00,66.3,57.0,30.15,SE,144,3.0,4.0,72,0.00,,,0.00,Wunderground v.1.15,2013-06-10 16:35:00,
2013-06-10 12:45:00,66.3,56.6,30.15,ESE,112,3.0,3.0,71,0.00,,,0.00,Wunderground v.1.15,2013-06-10 16:45:00,
2013-06-10 12:50:00,66.4,57.1,30.15,SE,145,3.0,5.0,72,0.00,,,0.00,Wunderground v.1.15,2013-06-10 16:50:00,
2013-06-10 13:00:00,66.6,57.3,30.15,SE,131,3.0,3.0,72,0.00,,,0.00,Wunderground v.1.15,2013-06-10 17:00:00,
2013-06-10 13:05:00,66.5,57.6,30.15,SE,128,3.0,3.0,73,0.00,,,0.00,Wunderground v.1.15,2013-06-10 17:05:00,
2013-06-10 13:15:00,66.6,57.7,30.15,SE,131,3.0,3.0,73,0.00,,,0.00,Wunderground v.1.15,2013-06-10 17:15:00,
2013-06-10 13:25:00,66.5,57.6,30.14,SE,135,4.0,4.0,73,0.00,,,0.00,Wunderground v.1.15,2013-06-10 17:25:00,
2013-06-10 13:35:00,66.7,57.4,30.13,ESE,109,4.0,7.0,72,0.00,,,0.00,Wunderground v.1.15,2013-06-10 17:35:00,
2013-06-10 13:45:00,67.3,58.3,30.13,SE,137,3.0,3.0,73,0.00,,,0.00,Wunderground v.1.15,2013-06-10 17:45:00,
2013-06-10 13:50:00,67.2,57.9,30.13,East,95,2.0,2.0,72,0.00,,,0.00,Wunderground v.1.15,2013-06-10 17:50:00,
2013-06-10 13:55:00,67.4,58.1,30.13,SE,127,2.0,3.0,72,0.00,,,0.00,Wunderground v.1.15,2013-06-10 17:55:00,
2013-06-10 14:05:00,67.5,58.2,30.12,East,99,3.0,3.0,72,0.00,,,0.00,Wunderground v.1.15,2013-06-10 18:05:00,
2013-06-10 14:10:00,67.7,58.7,30.12,East,94,2.0,2.0,73,0.00,,,0.00,Wunderground v.1.15,2013-06-10 18:10:00,
2013-06-10 14:20:00,67.4,57.7,30.12,East,91,3.0,5.0,71,0.00,,,0.00,Wunderground v.1.15,2013-06-10 18:20:00,
2013-06-10 14:25:00,67.7,58.0,30.12,ESE,112,3.0,5.0,71,0.00,,,0.00,Wunderground v.1.15,2013-06-10 18:25:00,
2013-06-10 14:35:00,68.0,59.0,30.12,ESE,117,2.0,3.0,73,0.00,,,0.00,Wunderground v.1.15,2013-06-10 18:35:00,
2013-06-10 14:45:00,67.5,57.8,30.12,East,101,3.0,5.0,71,0.00,,,0.00,Wunderground v.1.15,2013-06-10 18:45:00,
2013-06-10 14:50:00,67.4,57.7,30.12,NE,40,3.0,3.0,71,0.00,,,0.00,Wunderground v.1.15,2013-06-10 18:50:00,
2013-06-10 15:00:00,67.1,57.0,30.11,SE,140,3.0,6.0,70,0.00,,,0.00,Wunderground v.1.15,2013-06-10 19:00:00,
2013-06-10 15:05:00,67.1,57.0,30.11,ESE,117,3.0,6.0,70,0.00,,,0.00,Wunderground v.1.15,2013-06-10 19:05:00,
2013-06-10 15:15:00,66.7,57.0,30.11,ESE,103,4.0,7.0,71,0.00,,,0.00,Wunderground v.1.15,2013-06-10 19:15:00,
2013-06-10 15:20:00,66.6,56.5,30.12,ESE,121,3.0,7.0,70,0.00,,,0.00,Wunderground v.1.15,2013-06-10 19:20:00,
2013-06-10 15:30:00,65.9,57.0,30.12,East,94,3.0,3.0,73,0.00,,,0.00,Wunderground v.1.15,2013-06-10 19:30:00,
2013-06-10 15:35:00,65.8,56.9,30.11,East,92,3.0,3.0,73,0.00,,,0.00,Wunderground v.1.15,2013-06-10 19:35:00,
2013-06-10 15:45:00,65.6,57.5,30.11,ENE,78,3.0,3.0,75,0.00,,,0.00,Wunderground v.1.15,2013-06-10 19:45:00,
2013-06-10 15:55:00,65.6,57.8,30.10,ESE,117,3.0,4.0,76,0.00,,,0.00,Wunderground v.1.15,2013-06-10 19:55:00,
2013-06-10 16:00:00,65.6,57.5,30.10,ENE,74,3.0,3.0,75,0.00,,,0.00,Wunderground v.1.15,2013-06-10 20:00:00,
2013-06-10 16:10:00,65.3,57.2,30.09,ENE,78,3.0,4.0,75,0.00,,,0.00,Wunderground v.1.15,2013-06-10 20:10:00,
2013-06-10 16:20:00,65.4,57.3,30.09,ENE,71,3.0,3.0,75,0.00,,,0.00,Wunderground v.1.15,2013-06-10 20:20:00,
2013-06-10 16:25:00,65.5,57.7,30.09,ESE,121,3.0,3.0,76,0.00,,,0.00,Wunderground v.1.15,2013-06-10 20:25:00,
2013-06-10 16:35:00,65.6,57.5,30.08,ESE,115,3.0,3.0,75,0.00,,,0.00,Wunderground v.1.15,2013-06-10 20:35:00,
2013-06-10 16:45:00,65.6,57.8,30.08,SE,129,2.0,6.0,76,0.00,,,0.00,Wunderground v.1.15,2013-06-10 20:45:00,
2013-06-10 16:50:00,65.5,58.1,30.08,ESE,115,2.0,3.0,77,0.00,,,0.00,Wunderground v.1.15,2013-06-10 20:50:00,
2013-06-10 17:00:00,65.4,59.1,30.08,ESE,105,2.0,2.0,80,0.00,,,0.00,Wunderground v.1.15,2013-06-10 21:00:00,
2013-06-10 17:10:00,65.2,58.5,30.07,SSE,147,1.0,3.0,79,0.00,,,0.00,Wunderground v.1.15,2013-06-10 21:10:00,
2013-06-10 17:20:00,64.8,58.8,30.07,ENE,69,3.0,3.0,81,0.00,,,0.00,Wunderground v.1.15,2013-06-10 21:20:00,
2013-06-10 17:30:00,64.8,59.9,30.07,SE,127,2.0,2.0,84,0.00,,,0.00,Wunderground v.1.15,2013-06-10 21:30:00,
2013-06-10 17:35:00,64.6,59.3,30.07,ESE,105,1.0,2.0,83,0.00,,,0.01,Wunderground v.1.15,2013-06-10 21:35:00,
2013-06-10 17:40:00,64.2,58.9,30.06,ESE,121,2.0,2.0,83,0.00,,,0.01,Wunderground v.1.15,2013-06-10 21:40:00,
2013-06-10 17:50:00,63.9,59.0,30.06,SE,138,2.0,3.0,84,0.00,,,0.01,Wunderground v.1.15,2013-06-10 21:50:00,
2013-06-10 18:00:00,63.7,59.1,30.06,SE,140,2.0,2.0,85,0.00,,,0.02,Wunderground v.1.15,2013-06-10 22:00:00,
2013-06-10 18:10:00,63.5,59.6,30.06,East,81,2.0,2.0,87,0.00,,,0.02,Wunderground v.1.15,2013-06-10 22:10:00,
2013-06-10 18:20:00,62.9,59.0,30.05,SE,129,2.0,3.0,87,0.00,,,0.03,Wunderground v.1.15,2013-06-10 22:20:00,
2013-06-10 18:30:00,62.7,59.1,30.05,SSE,148,2.0,2.0,88,0.00,,,0.03,Wunderground v.1.15,2013-06-10 22:30:00,
2013-06-10 18:40:00,62.5,59.2,30.05,SE,134,1.0,2.0,89,0.00,,,0.03,Wunderground v.1.15,2013-06-10 22:40:00,
2013-06-10 18:45:00,62.4,59.1,30.06,SE,132,2.0,3.0,89,0.00,,,0.03,Wunderground v.1.15,2013-06-10 22:45:00,
2013-06-10 18:50:00,62.2,58.9,30.06,SE,129,2.0,2.0,89,0.00,,,0.04,Wunderground v.1.15,2013-06-10 22:50:00,
2013-06-10 19:00:00,62.0,58.7,30.06,East,94,1.0,2.0,89,0.05,,,0.05,Wunderground v.1.15,2013-06-10 23:00:00,
2013-06-10 19:05:00,61.8,58.8,30.06,SE,131,1.0,2.0,90,0.05,,,0.05,Wunderground v.1.15,2013-06-10 23:05:00,
2013-06-10 19:10:00,61.7,58.7,30.06,SE,141,2.0,2.0,90,0.09,,,0.06,Wunderground v.1.15,2013-06-10 23:10:00,
2013-06-10 19:20:00,61.6,58.6,30.06,SE,131,2.0,6.0,90,0.07,,,0.07,Wunderground v.1.15,2013-06-10 23:20:00,
2013-06-10 19:30:00,61.4,58.7,30.06,East,96,2.0,2.0,91,0.09,,,0.09,Wunderground v.1.15,2013-06-10 23:30:00,
2013-06-10 19:40:00,61.3,58.7,30.05,SE,143,1.0,1.0,91,0.10,,,0.10,Wunderground v.1.15,2013-06-10 23:40:00,
2013-06-10 19:50:00,61.1,58.8,30.05,SE,130,1.0,1.0,92,0.10,,,0.12,Wunderground v.1.15,2013-06-10 23:50:00,
2013-06-10 20:00:00,61.0,58.7,30.04,ENE,76,1.0,1.0,92,0.09,,,0.14,Wunderground v.1.15,2013-06-11 00:00:00,
2013-06-10 20:05:00,61.0,58.7,30.03,SE,126,1.0,2.0,92,0.09,,,0.14,Wunderground v.1.15,2013-06-11 00:05:00,
2013-06-10 20:10:00,60.9,58.6,30.03,SE,136,1.0,2.0,92,0.05,,,0.14,Wunderground v.1.15,2013-06-11 00:10:00,
2013-06-10 20:20:00,60.9,58.9,30.03,ENE,78,1.0,2.0,93,0.04,,,0.15,Wunderground v.1.15,2013-06-11 00:20:00,
2013-06-10 20:30:00,60.9,58.9,30.03,SE,143,2.0,2.0,93,0.06,,,0.16,Wunderground v.1.15,2013-06-11 00:30:00,
2013-06-10 20:35:00,60.9,58.9,30.03,ESE,114,2.0,2.0,93,0.06,,,0.17,Wunderground v.1.15,2013-06-11 00:35:00,
2013-06-10 20:45:00,60.9,58.9,30.02,ESE,119,1.0,1.0,93,0.08,,,0.18,Wunderground v.1.15,2013-06-11 00:45:00,
2013-06-10 20:55:00,60.5,58.5,30.02,SE,139,2.0,2.0,93,0.04,,,0.19,Wunderground v.1.15,2013-06-11 00:55:00,
2013-06-10 21:05:00,60.2,58.2,30.01,ENE,62,2.0,2.0,93,0.08,,,0.20,Wunderground v.1.15,2013-06-11 01:05:00,
2013-06-10 21:15:00,60.1,58.1,30.01,ESE,123,1.0,3.0,93,0.06,,,0.21,Wunderground v.1.15,2013-06-11 01:15:00,
2013-06-10 21:20:00,60.0,58.0,30.01,ENE,63,2.0,2.0,93,0.08,,,0.22,Wunderground v.1.15,2013-06-11 01:20:00,
2013-06-10 21:25:00,59.9,57.9,30.00,ESE,116,2.0,2.0,93,0.07,,,0.22,Wunderground v.1.15,2013-06-11 01:25:00,
2013-06-10 21:35:00,59.9,57.9,29.99,SE,131,2.0,2.0,93,0.05,,,0.23,Wunderground v.1.15,2013-06-11 01:35:00,
2013-06-10 21:45:00,59.9,57.9,29.99,East,84,2.0,3.0,93,0.04,,,0.24,Wunderground v.1.15,2013-06-11 01:45:00,
2013-06-10 21:50:00,59.8,58.1,30.00,ESE,111,2.0,2.0,94,0.04,,,0.24,Wunderground v.1.15,2013-06-11 01:50:00,
2013-06-10 21:55:00,59.8,57.8,30.00,East,100,1.0,2.0,93,0.04,,,0.24,Wunderground v.1.15,2013-06-11 01:55:00,
2013-06-10 22:05:00,59.7,57.7,30.00,SE,144,2.0,5.0,93,0.63,,,0.30,Wunderground v.1.15,2013-06-11 02:05:00,
2013-06-10 22:15:00,59.4,57.4,29.99,SE,144,3.0,3.0,93,0.36,,,0.36,Wunderground v.1.15,2013-06-11 02:15:00,
2013-06-10 22:20:00,59.4,57.4,29.99,North,360,2.0,3.0,93,0.28,,,0.39,Wunderground v.1.15,2013-06-11 02:20:00,
2013-06-10 22:25:00,59.3,57.3,30.00,SSE,148,2.0,3.0,93,0.17,,,0.40,Wunderground v.1.15,2013-06-11 02:25:00,
2013-06-10 22:35:00,59.2,57.2,30.00,SSW,195,1.0,2.0,93,0.05,,,0.40,Wunderground v.1.15,2013-06-11 02:35:00,
2013-06-10 22:45:00,59.1,57.4,30.00,ENE,72,2.0,3.0,94,0.09,,,0.42,Wunderground v.1.15,2013-06-11 02:45:00,
2013-06-10 22:50:00,59.2,57.5,29.99,SE,133,1.0,2.0,94,0.09,,,0.42,Wunderground v.1.15,2013-06-11 02:50:00,
2013-06-10 23:00:00,59.0,57.3,29.99,ESE,115,3.0,3.0,94,0.13,,,0.44,Wunderground v.1.15,2013-06-11 03:00:00,
2013-06-10 23:05:00,59.0,57.3,29.98,ESE,115,2.0,3.0,94,0.07,,,0.44,Wunderground v.1.15,2013-06-11 03:05:00,
2013-06-10 23:10:00,59.0,57.3,29.98,ESE,109,2.0,2.0,94,0.24,,,0.46,Wunderground v.1.15,2013-06-11 03:10:00,
2013-06-10 23:15:00,59.0,57.3,29.98,SSW,192,2.0,2.0,94,0.14,,,0.48,Wunderground v.1.15,2013-06-11 03:15:00,
2013-06-10 23:25:00,58.8,57.1,29.98,ESE,106,3.0,3.0,94,0.26,,,0.50,Wunderground v.1.15,2013-06-11 03:25:00,
2013-06-10 23:35:00,58.7,57.0,29.98,SE,145,2.0,8.0,94,0.35,,,0.56,Wunderground v.1.15,2013-06-11 03:35:00,
2013-06-10 23:45:00,58.5,56.8,29.98,SSE,165,2.0,2.0,94,0.46,,,0.62,Wunderground v.1.15,2013-06-11 03:45:00,
2013-06-10 23:50:00,58.5,56.8,29.98,SE,126,1.0,1.0,94,0.25,,,0.64,Wunderground v.1.15,2013-06-11 03:50:00,